Wind_Speed
34 36 37 38 39 39 38 34 30 31 32 33 34 35 35 35 34 33 33 33 33 32 32 31 32 35 35 34 30 26 25 29 32 31 31 29 30 31 34 35 36 37 37
36 37 39 41 40 39 38 37 35 33 34 35 36 37 37 37 37 36 35 34 33 33 34 34 33 35 36 34 33 28 27 27 29 33 34 33 33 34 35 34 35 36 38
40 41 42 41 40 40 39 38 37 35 35 36 38 39 40 40 39 37 35 35 35 35 36 35 35 35 36 33 33 32 30 29 30 31 35 38 38 38 39 40 40 40 39
43 43 42 41 40 38 37 37 38 38 38 38 39 40 39 38 37 37 38 37 37 38 39 38 37 37 37 36 36 36 34 32 31 31 32 36 40 42 43 43 43 41 42
46 46 42 38 36 36 37 39 41 43 42 40 41 40 39 39 40 41 41 40 39 40 41 40 41 39 40 41 40 41 39 37 35 34 34 36 37 40 43 45 45 46 45
50 46 40 37 36 36 38 40 42 42 41 40 42 44 45 46 44 42 40 39 40 43 43 43 44 43 43 45 43 42 40 36 36 37 37 38 39 40 42 44 47 49 49
47 41 39 37 36 37 37 37 37 39 42 45 45 43 45 47 45 43 42 44 46 47 45 47 46 47 47 48 45 43 44 42 40 38 38 39 40 41 43 45 48 51 53
42 40 39 38 39 39 38 39 41 42 43 44 44 42 42 41 42 46 48 51 51 47 47 47 49 50 51 50 49 46 48 50 47 43 42 40 41 43 44 46 49 50 52
40 39 40 42 43 43 44 44 44 44 45 45 45 45 44 44 47 45 52 56 53 52 53 51 52 52 53 52 53 52 52 51 48 46 47 47 48 49 50 50 51 53 55
42 43 44 45 46 47 46 44 45 47 48 49 48 49 50 52 51 52 53 54 54 53 51 51 54 54 54 57 57 58 59 55 54 54 53 52 53 54 55 56 58 61 61
48 48 49 50 50 49 48 48 50 53 53 53 52 55 57 57 57 56 56 57 51 50 51 55 59 59 62 60 62 61 62 62 63 62 59 64 63 60 61 64 65 66 67
51 52 52 52 53 52 52 53 54 56 55 54 55 58 64 66 62 58 52 54 51 54 60 59 60 62 60 64 66 63 63 66 68 68 69 72 76 79 75 75 72 69 71
55 55 54 55 55 57 57 58 58 60 57 58 59 63 66 69 62 58 55 61 67 63 64 63 64 61 63 58 65 64 65 67 68 70 74 78 79 78 77 75 73 71 72
57 56 55 55 57 61 60 62 63 60 62 64 67 68 68 66 62 62 60 65 64 63 63 63 63 63 64 69 70 71 71 72 75 77 79 78 78 82 79 76 76 76 78
57 58 59 61 64 65 66 64 62 66 68 69 67 67 67 67 64 65 62 71 74 70 76 65 66 69 68 73 73 73 72 72 75 79 82 84 81 78 79 77 75 75 75
60 62 63 64 65 67 68 66 67 67 66 69 66 65 69 64 63 63 71 74 68 69 66 68 73 74 75 74 74 76 79 77 77 77 76 78 79 79 76 76 75 74 75
67 66 65 65 66 64 64 61 60 67 68 65 67 68 67 66 64 66 70 71 67 67 72 80 81 80 80 80 80 79 78 76 73 74 73 75 74 71 72 71 68 68 69
62 63 65 63 63 59 61 59 62 69 68 69 69 66 66 66 68 68 67 67 69 76 78 84 84 80 78 78 78 77 78 75 73 70 64 61 60 59 60 61 60 60 62
57 59 57 58 62 54 62 68 66 68 62 60 61 61 61 63 66 69 71 72 72 75 78 74 75 76 74 73 73 73 70 63 57 56 57 56 56 58 58 59 57 57 57
53 56 55 55 57 59 61 58 53 52 53 56 59 62 66 70 73 78 74 72 75 75 76 75 74 72 68 67 66 60 56 56 57 57 57 57 57 57 58 58 57 55 54
43 46 51 53 56 56 54 52 55 56 61 64 64 65 66 66 68 68 69 69 70 72 72 73 71 66 61 57 57 57 57 59 60 60 58 57 59 61 59 58 57 55 56
48 49 51 48 50 50 52 56 59 64 64 63 61 63 67 69 69 68 69 70 72 69 68 64 60 57 58 59 60 62 64 64 64 62 61 61 61 62 62 60 58 57 57
43 46 47 49 51 54 58 63 64 59 60 61 63 63 64 65 67 68 69 69 67 64 60 59 59 60 62 63 65 66 67 68 67 66 65 65 65 65 65 63 61 60 59
46 49 51 55 59 61 63 61 61 62 61 62 64 65 67 68 67 66 66 64 63 62 62 63 65 66 66 67 68 69 70 71 71 70 71 71 71 70 69 67 64 61 59
50 53 54 56 59 61 63 64 64 65 66 67 66 65 64 63 63 62 64 64 65 66 67 68 69 70 70 71 73 74 74 75 75 76 76 75 74 72 69 65 61 58 57
52 53 56 58 59 60 63 65 68 68 66 63 62 62 62 62 63 65 66 68 69 69 71 73 74 75 76 76 77 77 78 78 78 78 76 74 69 64 60 57 56 55 52
Wind_Direction
294 296 295 294 293 293 292 289 286 283 279 279 280 280 281 280 280 280 281 283 284 285 287 291 299 304 305 304 302 291 282 277 273 269 269 268 267 264 262 262 264 266 268
294 293 293 291 291 291 288 285 286 281 279 277 278 279 279 279 280 278 277 280 281 282 284 289 293 299 301 300 301 295 287 273 273 269 268 267 267 267 267 266 267 270 272
297 296 293 291 290 288 285 281 279 278 278 277 276 277 278 280 279 276 275 278 280 280 283 285 288 292 293 291 294 293 286 282 271 267 262 263 265 267 267 269 271 272 273
298 295 292 289 287 282 278 276 276 277 274 273 273 275 278 278 277 277 280 279 279 279 279 281 285 287 287 286 287 287 283 279 273 268 264 262 261 262 264 265 266 266 269
301 300 295 288 283 277 273 272 271 272 273 273 276 277 278 280 283 282 281 278 277 279 278 280 282 283 283 281 280 284 279 278 276 272 268 264 261 258 259 262 265 262 263
298 294 289 285 282 279 277 275 274 272 273 276 281 284 283 283 281 278 276 278 285 285 281 281 279 279 280 279 278 285 279 275 273 273 274 272 269 265 260 259 259 262 263
294 289 286 283 281 281 280 279 276 274 276 278 280 279 277 277 277 275 276 277 283 282 279 279 278 279 277 274 276 278 275 275 277 278 277 276 277 275 272 267 262 261 261
289 286 284 282 282 283 280 278 278 279 277 279 278 277 275 275 277 274 273 274 281 275 278 278 278 276 273 270 274 274 273 274 276 275 275 277 280 282 283 281 278 272 267
283 283 283 283 284 283 281 282 282 283 283 281 278 278 278 280 282 275 273 277 278 279 278 278 277 270 268 265 268 270 269 270 271 273 276 278 281 283 284 284 283 281 279
280 280 282 283 282 281 281 281 282 285 284 282 280 279 281 283 282 281 281 279 278 279 278 277 273 269 271 277 273 273 272 265 269 273 276 277 278 281 283 285 287 287 287
280 282 283 282 281 281 278 278 283 286 284 281 276 276 282 283 283 283 280 278 280 274 276 275 268 270 281 282 277 269 266 270 274 278 280 283 285 287 287 286 286 287 287
279 280 280 279 281 279 278 282 286 287 284 280 277 274 277 279 282 282 280 269 273 274 269 267 271 278 273 277 271 272 273 274 277 279 283 286 286 288 289 289 288 289 290
279 279 279 280 280 278 278 281 286 286 284 277 277 273 272 276 279 275 271 265 274 263 266 276 278 274 269 266 269 270 277 283 283 284 286 288 291 289 286 289 287 286 286
277 278 279 280 279 279 279 282 286 280 279 275 275 274 275 275 276 268 273 266 264 260 267 270 270 271 268 274 277 280 285 287 287 288 290 291 292 293 289 285 283 282 281
277 278 279 280 278 276 276 281 278 273 276 277 276 276 275 275 271 271 266 263 261 266 269 267 277 284 284 281 278 280 284 287 290 292 291 289 286 282 280 276 271 269 266
280 281 280 278 276 275 276 277 274 273 273 271 273 270 273 272 266 267 266 261 261 264 265 275 286 286 286 289 287 288 290 287 286 285 283 282 279 275 272 271 270 268 267
281 281 279 276 275 277 276 273 272 267 271 273 270 270 271 271 267 264 262 266 270 271 275 283 288 290 294 295 292 289 288 286 283 282 278 278 276 274 274 272 270 270 269
275 273 275 274 277 277 277 274 268 264 264 266 268 267 269 269 266 266 266 266 270 279 282 290 295 295 292 289 287 285 284 283 280 278 277 276 277 277 276 275 274 273 271
277 276 271 279 269 276 273 266 264 263 262 263 264 264 265 267 267 272 277 283 287 293 294 292 290 288 283 283 283 281 279 279 278 278 278 278 278 276 276 276 275 275 274
271 268 269 274 268 266 267 265 261 259 263 269 276 278 278 280 285 289 293 294 294 294 291 289 288 284 282 280 280 277 278 279 279 278 279 278 276 275 277 277 276 275 274
276 278 278 273 268 266 261 260 265 272 276 284 289 291 294 294 294 293 291 288 285 282 285 286 283 281 280 279 278 280 281 280 280 279 278 277 276 276 276 276 276 275 273
279 269 268 266 265 270 276 277 283 288 290 291 290 290 291 290 288 285 282 282 282 283 284 282 281 280 278 278 279 280 281 282 281 280 279 277 275 275 276 275 274 273 272
269 271 275 277 279 277 274 279 285 284 284 285 286 285 284 281 280 280 280 279 280 282 281 281 280 279 279 280 281 282 282 282 281 281 279 278 276 275 274 273 272 270 269
274 275 278 279 280 282 282 280 283 287 287 287 286 284 282 281 280 280 282 284 282 281 281 281 281 281 281 282 283 283 282 282 282 280 279 278 276 275 272 270 267 266 265
277 278 280 281 281 282 285 286 287 287 287 288 285 282 282 282 283 285 284 283 282 282 282 283 283 284 284 284 283 283 282 282 281 280 278 277 275 273 270 267 263 260 261
280 282 284 284 283 283 285 286 287 289 288 285 282 282 285 285 285 285 285 285 284 285 285 285 285 285 285 284 283 282 282 281 280 278 277 275 273 270 267 263 259 257 257
Height
5755 5753 5750 5748 5745 5742 5740 5737 5736 5734 5733 5732 5731 5730 5729 5728 5728 5727 5725 5723 5722 5721 5720 5719 5717 5716 5715 5714 5713 5712 5711 5710 5709 5709 5710 5711 5712 5712 5713 5714 5715 5715 5715
5747 5745 5742 5739 5736 5734 5731 5729 5728 5726 5724 5723 5722 5721 5720 5719 5718 5717 5716 5714 5713 5712 5711 5710 5709 5708 5706 5705 5704 5703 5703 5702 5701 5700 5701 5702 5703 5703 5704 5704 5705 5706 5706
5736 5734 5731 5728 5725 5723 5721 5720 5718 5716 5715 5714 5712 5711 5710 5709 5708 5707 5706 5705 5704 5703 5702 5700 5700 5699 5697 5696 5694 5693 5693 5693 5692 5692 5692 5692 5693 5693 5694 5694 5695 5696 5697
5725 5722 5719 5717 5714 5712 5710 5709 5708 5707 5705 5703 5702 5701 5700 5699 5698 5697 5696 5695 5694 5693 5691 5690 5689 5688 5687 5686 5685 5683 5683 5682 5682 5682 5682 5682 5683 5683 5684 5684 5685 5686 5686
5712 5709 5707 5705 5703 5702 5700 5699 5697 5695 5694 5693 5691 5690 5689 5689 5688 5686 5685 5684 5683 5681 5680 5679 5679 5677 5676 5675 5674 5673 5671 5671 5671 5671 5671 5672 5673 5673 5673 5673 5673 5674 5675
5700 5696 5694 5692 5692 5690 5689 5687 5686 5685 5684 5683 5682 5680 5679 5677 5675 5674 5673 5672 5672 5670 5669 5668 5667 5666 5665 5664 5663 5662 5661 5660 5659 5659 5659 5660 5660 5661 5662 5662 5662 5662 5663
5687 5685 5683 5682 5680 5679 5678 5677 5676 5675 5674 5673 5670 5668 5666 5664 5663 5662 5661 5661 5659 5659 5658 5656 5655 5654 5652 5652 5651 5650 5649 5648 5647 5647 5646 5646 5647 5648 5649 5650 5650 5650 5651
5676 5674 5672 5670 5669 5667 5666 5665 5665 5663 5661 5659 5657 5655 5654 5652 5650 5650 5648 5647 5646 5645 5644 5642 5641 5640 5639 5639 5639 5638 5636 5635 5634 5633 5632 5632 5633 5634 5635 5636 5637 5638 5639
5664 5662 5661 5659 5658 5656 5654 5652 5651 5649 5647 5645 5643 5641 5640 5638 5637 5635 5634 5632 5631 5629 5628 5627 5626 5625 5624 5624 5623 5623 5622 5620 5619 5618 5617 5617 5617 5617 5618 5619 5620 5621 5623
5652 5651 5649 5647 5645 5643 5641 5639 5637 5636 5633 5631 5629 5627 5625 5624 5622 5621 5618 5616 5615 5613 5612 5611 5610 5609 5609 5609 5607 5607 5606 5604 5604 5603 5602 5601 5600 5600 5600 5601 5602 5602 5603
5638 5637 5635 5633 5631 5629 5627 5625 5623 5620 5618 5616 5613 5612 5610 5608 5606 5604 5602 5600 5598 5597 5595 5595 5594 5593 5591 5590 5589 5588 5588 5587 5586 5585 5584 5583 5583 5582 5581 5580 5579 5580 5581
5624 5622 5619 5617 5615 5613 5611 5608 5606 5604 5602 5600 5597 5595 5592 5590 5588 5586 5584 5583 5581 5582 5581 5578 5576 5575 5574 5573 5571 5569 5568 5568 5568 5567 5565 5563 5563 5562 5560 5559 5556 5553 5554
5607 5605 5603 5601 5599 5597 5594 5592 5590 5587 5585 5582 5580 5577 5575 5572 5571 5569 5569 5567 5565 5563 5562 5559 5557 5555 5555 5553 5551 5550 5549 5548 5547 5545 5544 5542 5540 5537 5535 5532 5530 5527 5526
5591 5589 5586 5584 5583 5580 5578 5575 5572 5570 5568 5565 5563 5560 5558 5555 5554 5552 5551 5549 5546 5544 5542 5541 5541 5539 5537 5535 5532 5530 5529 5527 5525 5523 5520 5516 5514 5512 5509 5506 5505 5503 5502
5574 5572 5570 5568 5565 5563 5560 5558 5556 5553 5550 5546 5543 5541 5538 5536 5535 5533 5532 5530 5527 5526 5524 5522 5520 5519 5518 5515 5512 5509 5507 5504 5501 5498 5495 5491 5486 5482 5480 5478 5476 5475 5475
5554 5552 5550 5548 5546 5543 5540 5538 5535 5532 5529 5526 5523 5520 5518 5516 5514 5513 5512 5509 5506 5505 5504 5502 5500 5498 5496 5491 5487 5483 5481 5477 5474 5471 5466 5462 5459 5456 5451 5449 5449 5449 5449
5533 5531 5529 5527 5524 5522 5520 5518 5516 5514 5510 5507 5503 5500 5498 5496 5494 5492 5491 5489 5488 5486 5485 5482 5479 5477 5471 5465 5461 5455 5451 5449 5447 5444 5440 5436 5433 5430 5429 5425 5422 5423 5424
5513 5510 5508 5507 5505 5503 5500 5499 5497 5494 5490 5485 5483 5480 5478 5477 5475 5473 5470 5468 5468 5466 5464 5459 5454 5450 5444 5439 5434 5429 5426 5425 5423 5419 5415 5414 5412 5407 5405 5404 5402 5402 5402
5494 5491 5488 5487 5486 5482 5481 5479 5476 5472 5468 5465 5464 5462 5460 5458 5455 5453 5451 5449 5445 5441 5437 5433 5428 5424 5418 5412 5407 5405 5404 5402 5401 5398 5397 5393 5392 5391 5386 5385 5384 5383 5384
5476 5474 5471 5469 5466 5464 5462 5460 5457 5455 5451 5448 5445 5442 5441 5438 5435 5432 5428 5424 5421 5416 5413 5408 5404 5399 5394 5389 5386 5384 5383 5384 5383 5381 5378 5374 5373 5371 5368 5365 5364 5365 5367
5458 5456 5454 5452 5450 5448 5445 5442 5440 5437 5434 5430 5425 5422 5418 5415 5412 5409 5405 5402 5397 5394 5388 5384 5380 5375 5371 5370 5368 5365 5363 5363 5363 5361 5359 5356 5352 5350 5348 5346 5345 5347 5346
5442 5440 5437 5435 5433 5432 5429 5425 5423 5420 5415 5410 5404 5401 5398 5395 5392 5387 5383 5379 5376 5370 5365 5362 5359 5356 5354 5351 5349 5346 5344 5342 5340 5339 5337 5335 5332 5330 5328 5327 5327 5327 5326
5425 5425 5421 5418 5417 5415 5412 5408 5403 5399 5395 5391 5386 5381 5377 5373 5368 5365 5361 5357 5351 5347 5345 5342 5340 5337 5334 5330 5326 5324 5321 5318 5315 5314 5313 5311 5310 5309 5307 5307 5307 5306 5306
5412 5410 5406 5402 5398 5395 5391 5388 5383 5380 5375 5369 5364 5358 5355 5350 5346 5341 5337 5332 5329 5326 5324 5321 5319 5316 5312 5308 5304 5301 5297 5293 5290 5288 5286 5285 5284 5285 5285 5284 5285 5285 5286
5395 5394 5390 5385 5379 5374 5369 5364 5361 5358 5354 5348 5342 5337 5333 5328 5322 5316 5314 5312 5309 5304 5301 5298 5294 5291 5288 5284 5279 5275 5271 5268 5264 5260 5259 5258 5257 5257 5259 5260 5263 5265 5266
5377 5373 5370 5365 5358 5353 5348 5341 5337 5335 5331 5326 5320 5315 5310 5305 5300 5298 5295 5289 5285 5280 5276 5272 5268 5265 5261 5257 5253 5249 5245 5241 5237 5231 5230 5230 5231 5232 5234 5237 5241 5245 5248